Morrisville, VT

6:06 AM EDT on May 26, 2017 (GMT -0400)
Morrisville Stowe State

Weather History for KMVL - April, 2013

Change the Weather History Date:

Monday, April 8, 2013

  Actual Average Record
Temperature  
Mean Temperature 44 °F 38 °F  
Max Temperature 52 °F 50 °F 60 °F (1998)
Min Temperature 36 °F 27 °F 17 °F (2007)
Degree Days  
Heating Degree Days 21 27  
Month to date heating degree days 237 226  
Since 1 July heating degree days 6807 7313  
Cooling Degree Days 0 0  
Month to date cooling degree days 0 0  
Year to date cooling degree days 0 0  
Moisture  
Dew Point 30 °F    
Average Humidity 59    
Maximum Humidity 76    
Minimum Humidity 42    
Precipitation  
Precipitation T in 0.08 in 0.25 in (2014)
Month to date precipitation 0.23 0.67  
Year to date precipitation 4.71 6.62  
Sea Level Pressure  
Sea Level Pressure 30.07 in    
Wind  
Wind Speed 5 mph (NNW)    
Max Wind Speed 18 mph    
Max Gust Speed 24 mph    
Visibility 10 miles    
Events      
T = Trace of Precipitation, MM = Missing Value Source: NWS Daily Summary

Daily Weather History Graph

Daily Weather History Graph

Search for Another Location

Airport or City:

Trip Planner

Search our weather history database for the weather conditions in past years. The results will help you decide how hot, cold, wet, or windy it might be!

Date:

Astronomy

Apr. 08, 2013 Rise Set
Actual Time 6:18 AM EDT 7:26 PM EDT
Civil Twilight 5:48 AM EDT 7:56 PM EDT
Nautical Twilight 5:12 AM EDT 8:32 PM EDT
Astronomical Twilight 4:35 AM EDT 9:10 PM EDT
Moon 5:10 AM EDT (4/8) 5:55 PM EDT (4/8)
Length of Visible Light 14h 08m
Length of Day
13h 08m
Waning Crescent, 3% of the Moon is Illuminated
Apr 8
Waning Crescent
Apr 10
New
Apr 18
First Quarter
Apr 25
Full
May 2
Last Quarter

Hourly Weather History & Observations

Time (EDT) Temp. Windchill Dew Point Humidity Pressure Visibility Wind Dir Wind Speed Gust Speed Precip Events Conditions
12:54 AM 48.9 °F - 35.1 °F 59% 29.91 in 10.0 mi NNW 17.3 mph 24.2 mph N/A   Overcast
1:11 AM 46.4 °F 40.4 °F 35.6 °F 66% 29.90 in 10.0 mi NNW 13.8 mph 21.9 mph N/A   Overcast
1:54 AM 46.0 °F 40.2 °F 33.1 °F 61% 29.94 in 10.0 mi NW 12.7 mph - N/A   Overcast
2:54 AM 44.1 °F 37.4 °F 32.0 °F 63% 29.95 in 10.0 mi NW 13.8 mph 19.6 mph N/A   Mostly Cloudy
3:54 AM 43.0 °F 39.5 °F 32.0 °F 65% 29.99 in 10.0 mi North 5.8 mph - N/A   Overcast
4:01 AM 42.8 °F 39.3 °F 32.0 °F 66% 29.98 in 10.0 mi NW 5.8 mph - N/A   Overcast
4:54 AM 42.1 °F 39.2 °F 30.9 °F 65% 30.01 in 10.0 mi Variable 4.6 mph - N/A   Overcast
5:54 AM 39.9 °F 33.9 °F 30.0 °F 68% 30.03 in 10.0 mi NNW 9.2 mph - N/A   Overcast
6:54 AM 39.0 °F 33.4 °F 28.9 °F 67% 30.06 in 10.0 mi NW 8.1 mph 17.3 mph N/A   Overcast
7:54 AM 39.0 °F 34.0 °F 28.0 °F 65% 30.11 in 10.0 mi WNW 6.9 mph - N/A   Overcast
8:54 AM 39.0 °F 35.7 °F 28.0 °F 65% 30.13 in 10.0 mi NW 4.6 mph - N/A   Overcast
9:54 AM 39.0 °F 33.4 °F 28.0 °F 65% 30.14 in 10.0 mi NNW 8.1 mph 16.1 mph N/A   Overcast
10:54 AM 42.1 °F 36.6 °F 28.0 °F 58% 30.15 in 10.0 mi North 9.2 mph - N/A   Overcast
11:36 AM 42.8 °F 36.6 °F 30.2 °F 61% 30.15 in 10.0 mi NNW 11.5 mph 18.4 mph N/A   Overcast
11:54 AM 42.1 °F 35.7 °F 28.9 °F 60% 30.17 in 10.0 mi NNW 11.5 mph 17.3 mph N/A   Overcast
12:16 PM 42.8 °F 38.0 °F 28.4 °F 57% 30.15 in 10.0 mi North 8.1 mph - N/A   Overcast
12:54 PM 44.1 °F 40.8 °F 28.9 °F 55% 30.16 in 10.0 mi NNW 5.8 mph - N/A   Overcast
1:20 PM 44.6 °F 40.7 °F 28.4 °F 53% 30.13 in 10.0 mi NW 6.9 mph - N/A   Mostly Cloudy
1:54 PM 46.0 °F 43.9 °F 28.9 °F 51% 30.14 in 10.0 mi Variable 4.6 mph - N/A   Partly Cloudy
2:54 PM 48.9 °F - 28.9 °F 46% 30.12 in 10.0 mi Calm Calm - N/A   Clear
3:54 PM 50.0 °F - 28.9 °F 44% 30.12 in 10.0 mi NNE 4.6 mph - N/A   Clear
4:54 PM 50.0 °F - 28.9 °F 44% 30.09 in 10.0 mi NNE 4.6 mph - N/A   Clear
5:54 PM 50.0 °F - 28.9 °F 44% 30.08 in 10.0 mi NE 3.5 mph - N/A   Clear
6:54 PM 48.0 °F - 30.0 °F 50% 30.08 in 9.0 mi Calm Calm - N/A   Clear
7:54 PM 42.1 °F 40.2 °F 30.0 °F 62% 30.07 in 10.0 mi West 3.5 mph - N/A   Clear
8:54 PM 37.9 °F - 28.9 °F 70% 30.10 in 10.0 mi Calm Calm - N/A   Clear
9:54 PM 37.9 °F - 30.0 °F 73% 30.09 in 10.0 mi Calm Calm - N/A   Clear
10:54 PM 37.0 °F - 30.0 °F 76% 30.05 in 10.0 mi Calm Calm - N/A   Clear
11:54 PM 37.0 °F 34.5 °F 30.0 °F 76% 30.02 in 10.0 mi SSE 3.5 mph - N/A   Overcast